START_TIME,STEP,MOV.,M34,t_acc.,L5,t_acc.,L18,t_acc.,L14,t_acc.
1980-11-14 00:00:13.260 ,3,0,0.,12.0,0.,12.0,0.,12.0,0.,12.0
1980-11-14 00:00:25.260 ,3,0,0.,12.0,0.,12.0,0.,12.0,0.,12.0
1980-11-14 00:00:37.260 ,4,1,0.,12.0,0.,12.0,0.,12.0,0.,12.0
1980-11-14 00:00:49.260 ,4,1,0.,12.0,0.,12.0,0.,12.0,0.,12.0
1980-11-14 00:01:01.260 ,4,0,0.,12.0,0.,12.0,0.,12.0,0.,12.0
1980-11-14 00:01:13.260 ,4,0,0.,12.0,0.,12.0,0.,12.0,1.,12.0
1980-11-14 00:01:25.260 ,5,1,0.,12.0,0.,12.0,0.,12.0,0.,12.0
1980-11-14 00:01:37.260 ,5,1,0.,12.0,0.,12.0,0.,12.0,0.,12.0
1980-11-14 00:01:49.260 ,5,0,0.,12.0,0.,12.0,0.,12.0,0.,12.0
1980-11-14 00:02:01.260 ,5,0,0.,12.0,0.,12.0,0.,12.0,0.,12.0
1980-11-14 00:02:13.260 ,6,1,0.,12.0,0.,12.0,0.,12.0,0.,12.0
1980-11-14 00:02:25.260 ,6,1,0.,12.0,0.,12.0,0.,12.0,1.,12.0
1980-11-14 00:02:37.260 ,6,0,0.,12.0,0.,12.0,0.,12.0,0.,12.0
1980-11-14 00:02:49.260 ,6,0,0.,12.0,0.,12.0,0.,12.0,0.,12.0
1980-11-14 00:03:01.260 ,7,1,0.,12.0,0.,12.0,0.,12.0,0.,12.0
1980-11-14 00:03:13.260 ,7,1,0.,12.0,1.,12.0,0.,12.0,0.,12.0
1980-11-14 00:03:25.260 ,7,0,0.,12.0,0.,12.0,0.,12.0,0.,12.0
1980-11-14 00:03:37.260 ,7,0,0.,12.0,1.,12.0,0.,12.0,0.,12.0
1980-11-14 00:03:49.260 ,7,1,0.,12.0,2.,12.0,0.,12.0,0.,12.0
1980-11-14 00:04:01.260 ,7,1,0.,12.0,3.,12.0,0.,12.0,0.,12.0
1980-11-14 00:04:13.260 ,7,0,0.,12.0,3.,12.0,0.,12.0,0.,12.0
1980-11-14 00:04:25.260 ,7,0,0.,12.0,2.,12.0,0.,12.0,0.,12.0
1980-11-14 00:04:37.260 ,6,1,0.,12.0,0.,12.0,0.,12.0,0.,12.0
1980-11-14 00:04:49.260 ,6,1,0.,12.0,1.,12.0,0.,12.0,1.,12.0
1980-11-14 00:05:01.260 ,6,0,0.,12.0,0.,12.0,0.,12.0,0.,12.0
1980-11-14 00:05:13.260 ,6,0,0.,12.0,0.,12.0,0.,12.0,0.,12.0
1980-11-14 00:05:25.260 ,5,1,0.,12.0,0.,12.0,0.,12.0,0.,12.0
1980-11-14 00:05:37.260 ,5,1,0.,12.0,0.,12.0,0.,12.0,0.,12.0
1980-11-14 00:05:49.260 ,5,0,0.,12.0,0.,12.0,0.,12.0,0.,12.0
1980-11-14 00:06:01.260 ,5,0,0.,12.0,0.,12.0,0.,12.0,0.,12.0
1980-11-14 00:06:13.260 ,4,1,0.,12.0,0.,12.0,0.,12.0,0.,12.0
1980-11-14 00:06:25.260 ,4,1,0.,12.0,0.,12.0,0.,12.0,0.,12.0
1980-11-14 00:06:37.260 ,4,0,0.,12.0,0.,12.0,0.,12.0,0.,12.0
1980-11-14 00:06:49.260 ,4,0,0.,12.0,0.,12.0,0.,12.0,0.,12.0
1980-11-14 00:07:01.260 ,3,1,0.,12.0,0.,12.0,0.,12.0,0.,12.0
1980-11-14 00:07:13.260 ,3,1,0.,12.0,0.,12.0,0.,12.0,0.,12.0
1980-11-14 00:07:25.260 ,3,0,0.,12.0,0.,12.0,0.,12.0,1.,12.0
1980-11-14 00:07:37.260 ,3,0,0.,12.0,0.,12.0,0.,12.0,0.,12.0
1980-11-14 00:07:49.260 ,2,1,0.,12.0,0.,12.0,0.,12.0,0.,12.0
1980-11-14 00:08:01.260 ,2,1,0.,12.0,0.,12.0,0.,12.0,0.,12.0
1980-11-14 00:08:13.260 ,2,0,0.,12.0,0.,12.0,0.,12.0,0.,12.0
1980-11-14 00:08:25.260 ,2,0,0.,12.0,0.,12.0,0.,12.0,1.,12.0
1980-11-14 00:08:37.260 ,1,1,0.,12.0,0.,12.0,0.,12.0,0.,12.0
1980-11-14 00:08:49.260 ,1,1,0.,12.0,0.,12.0,0.,12.0,0.,12.0
1980-11-14 00:09:01.260 ,1,0,0.,12.0,0.,12.0,0.,12.0,0.,12.0
1980-11-14 00:09:13.260 ,1,0,0.,12.0,0.,12.0,0.,12.0,0.,12.0
1980-11-14 00:09:25.260 ,0,1,0.,12.0,0.,12.0,0.,12.0,1.,12.0
1980-11-14 00:09:37.260 ,0,1,0.,12.0,0.,12.0,0.,12.0,0.,12.0
1980-11-14 00:09:49.260 ,0,0,0.,12.0,0.,12.0,0.,12.0,0.,12.0
1980-11-14 00:10:01.260 ,0,0,0.,12.0,0.,12.0,0.,12.0,0.,12.0
1980-11-14 00:10:13.260 ,0,1,0.,12.0,0.,12.0,0.,12.0,0.,12.0
1980-11-14 00:10:25.260 ,0,1,0.,12.0,0.,12.0,0.,12.0,0.,12.0
1980-11-14 00:10:37.260 ,0,0,0.,12.0,0.,12.0,0.,12.0,0.,12.0
1980-11-14 00:10:49.260 ,0,0,0.,12.0,0.,12.0,0.,12.0,0.,12.0
1980-11-14 00:11:01.260 ,1,1,0.,12.0,0.,12.0,0.,12.0,0.,12.0
1980-11-14 00:11:13.260 ,1,1,0.,12.0,0.,12.0,0.,12.0,0.,12.0
1980-11-14 00:11:25.260 ,1,0,0.,12.0,0.,12.0,0.,12.0,1.,12.0
1980-11-14 00:11:37.260 ,1,0,0.,12.0,0.,12.0,0.,12.0,0.,12.0
1980-11-14 00:11:49.260 ,2,1,0.,12.0,0.,12.0,0.,12.0,0.,12.0
1980-11-14 00:12:01.260 ,2,1,0.,12.0,0.,12.0,0.,12.0,0.,12.0
1980-11-14 00:12:13.260 ,2,0,0.,12.0,0.,12.0,0.,12.0,0.,12.0
1980-11-14 00:12:25.260 ,2,0,0.,12.0,0.,12.0,0.,12.0,0.,12.0
1980-11-14 00:12:37.260 ,3,1,0.,12.0,0.,12.0,0.,12.0,0.,12.0
1980-11-14 00:12:49.260 ,3,1,0.,12.0,0.,12.0,0.,12.0,0.,12.0
1980-11-14 00:13:01.260 ,3,0,0.,12.0,0.,12.0,0.,12.0,0.,12.0
1980-11-14 00:13:13.260 ,3,0,0.,12.0,0.,12.0,0.,12.0,0.,12.0
1980-11-14 00:13:25.260 ,4,1,0.,12.0,0.,12.0,0.,12.0,0.,12.0
1980-11-14 00:13:37.260 ,4,1,0.,12.0,0.,12.0,0.,12.0,0.,12.0
1980-11-14 00:13:49.260 ,4,0,0.,12.0,0.,12.0,0.,12.0,0.,12.0
1980-11-14 00:14:01.260 ,4,0,0.,12.0,0.,12.0,0.,12.0,0.,12.0
1980-11-14 00:14:13.260 ,5,1,0.,12.0,0.,12.0,0.,12.0,0.,12.0
1980-11-14 00:14:25.260 ,5,1,0.,12.0,0.,12.0,0.,12.0,0.,12.0
1980-11-14 00:14:37.260 ,5,0,0.,12.0,0.,12.0,0.,12.0,0.,12.0
1980-11-14 00:14:49.260 ,5,0,0.,12.0,0.,12.0,0.,12.0,0.,12.0
1980-11-14 00:15:01.260 ,6,1,0.,12.0,0.,12.0,0.,12.0,0.,12.0
1980-11-14 00:15:13.260 ,6,1,0.,12.0,0.,12.0,0.,12.0,0.,12.0
1980-11-14 00:15:25.260 ,6,0,0.,12.0,0.,12.0,0.,12.0,0.,12.0
1980-11-14 00:15:37.260 ,6,0,0.,12.0,0.,12.0,0.,12.0,0.,12.0
1980-11-14 00:15:49.260 ,7,1,0.,12.0,0.,12.0,0.,12.0,0.,12.0
1980-11-14 00:16:01.260 ,7,1,0.,12.0,4.,12.0,0.,12.0,0.,12.0
1980-11-14 00:16:13.260 ,7,0,0.,12.0,3.,12.0,0.,12.0,0.,12.0
1980-11-14 00:16:25.260 ,7,0,0.,12.0,2.,12.0,0.,12.0,0.,12.0
1980-11-14 00:16:37.260 ,7,1,0.,12.0,2.,12.0,0.,12.0,0.,12.0
1980-11-14 00:16:49.260 ,7,1,0.,12.0,0.,12.0,0.,12.0,0.,12.0
1980-11-14 00:17:01.260 ,7,0,0.,12.0,8.,12.0,0.,12.0,1.,12.0
1980-11-14 00:17:13.260 ,7,0,0.,12.0,6.,12.0,0.,12.0,0.,12.0
1980-11-14 00:17:25.260 ,6,1,0.,12.0,4.,12.0,0.,12.0,0.,12.0
1980-11-14 00:17:37.260 ,6,1,0.,12.0,1.,12.0,0.,12.0,0.,12.0
1980-11-14 00:17:49.260 ,6,0,0.,12.0,0.,12.0,0.,12.0,0.,12.0
1980-11-14 00:18:01.260 ,6,0,0.,12.0,0.,12.0,0.,12.0,0.,12.0
1980-11-14 00:18:13.260 ,5,1,0.,12.0,0.,12.0,0.,12.0,0.,12.0
1980-11-14 00:18:25.260 ,5,1,0.,12.0,0.,12.0,0.,12.0,0.,12.0
1980-11-14 00:18:37.260 ,5,0,0.,12.0,0.,12.0,0.,12.0,0.,12.0
1980-11-14 00:18:49.260 ,5,0,0.,12.0,0.,12.0,0.,12.0,0.,12.0
1980-11-14 00:19:01.260 ,4,1,0.,12.0,0.,12.0,0.,12.0,0.,12.0
1980-11-14 00:19:13.260 ,4,1,0.,12.0,0.,12.0,0.,12.0,0.,12.0
1980-11-14 00:19:25.260 ,4,0,0.,12.0,0.,12.0,0.,12.0,0.,12.0
1980-11-14 00:19:37.260 ,4,0,0.,12.0,0.,12.0,0.,12.0,0.,12.0
1980-11-14 00:19:49.260 ,3,1,0.,12.0,0.,12.0,0.,12.0,0.,12.0
1980-11-14 00:20:01.260 ,3,1,0.,12.0,0.,12.0,0.,12.0,0.,12.0
1980-11-14 00:20:13.260 ,3,0,0.,12.0,0.,12.0,0.,12.0,1.,12.0
1980-11-14 00:20:25.260 ,3,0,0.,12.0,0.,12.0,0.,12.0,0.,12.0
1980-11-14 00:20:37.260 ,2,1,0.,12.0,0.,12.0,0.,12.0,0.,12.0
1980-11-14 00:20:49.260 ,2,1,0.,12.0,0.,12.0,0.,12.0,0.,12.0
1980-11-14 00:21:01.260 ,2,0,0.,12.0,0.,12.0,0.,12.0,0.,12.0
1980-11-14 00:21:13.260 ,2,0,0.,12.0,0.,12.0,0.,12.0,0.,12.0
1980-11-14 00:21:25.260 ,1,1,0.,12.0,0.,12.0,0.,12.0,0.,12.0
1980-11-14 00:21:37.260 ,1,1,0.,12.0,0.,12.0,0.,12.0,0.,12.0
1980-11-14 00:21:49.260 ,1,0,0.,12.0,0.,12.0,0.,12.0,0.,12.0
1980-11-14 00:22:01.260 ,1,0,0.,12.0,0.,12.0,0.,12.0,0.,12.0
1980-11-14 00:22:13.260 ,0,1,0.,12.0,0.,12.0,0.,12.0,0.,12.0
1980-11-14 00:22:25.260 ,0,1,0.,12.0,0.,12.0,0.,12.0,0.,12.0
1980-11-14 00:22:37.260 ,0,0,0.,12.0,0.,12.0,0.,12.0,0.,12.0
1980-11-14 00:22:49.260 ,0,0,0.,12.0,0.,12.0,0.,12.0,0.,12.0
1980-11-14 00:23:01.260 ,0,1,0.,12.0,0.,12.0,0.,12.0,0.,12.0
1980-11-14 00:23:13.260 ,0,1,0.,12.0,0.,12.0,0.,12.0,1.,12.0
1980-11-14 00:23:25.260 ,0,0,0.,12.0,0.,12.0,0.,12.0,0.,12.0
1980-11-14 00:23:37.260 ,0,0,0.,12.0,0.,12.0,0.,12.0,0.,12.0
1980-11-14 00:23:49.260 ,1,1,0.,12.0,0.,12.0,0.,12.0,1.,12.0
1980-11-14 00:24:01.260 ,1,1,0.,12.0,0.,12.0,0.,12.0,1.,12.0
1980-11-14 00:24:13.260 ,1,0,0.,12.0,0.,12.0,0.,12.0,0.,12.0
1980-11-14 00:24:25.260 ,1,0,0.,12.0,0.,12.0,0.,12.0,0.,12.0
1980-11-14 00:24:37.260 ,2,1,0.,12.0,0.,12.0,0.,12.0,0.,12.0
1980-11-14 00:24:49.260 ,2,1,0.,12.0,0.,12.0,0.,12.0,0.,12.0
1980-11-14 00:25:01.260 ,2,0,0.,12.0,0.,12.0,0.,12.0,0.,12.0
1980-11-14 00:25:13.260 ,2,0,0.,12.0,0.,12.0,0.,12.0,0.,12.0
1980-11-14 00:25:25.260 ,3,1,0.,12.0,0.,12.0,0.,12.0,0.,12.0
1980-11-14 00:25:37.260 ,3,1,0.,12.0,0.,12.0,0.,12.0,0.,12.0
1980-11-14 00:25:49.260 ,3,0,0.,12.0,0.,12.0,0.,12.0,0.,12.0
1980-11-14 00:26:01.260 ,3,0,0.,12.0,0.,12.0,0.,12.0,0.,12.0
1980-11-14 00:26:13.260 ,4,1,0.,12.0,0.,12.0,0.,12.0,0.,12.0
1980-11-14 00:26:25.260 ,4,1,0.,12.0,0.,12.0,0.,12.0,0.,12.0
1980-11-14 00:26:37.260 ,4,0,0.,12.0,0.,12.0,0.,12.0,0.,12.0
1980-11-14 00:26:49.260 ,4,0,0.,12.0,0.,12.0,0.,12.0,0.,12.0
1980-11-14 00:27:01.260 ,5,1,0.,12.0,0.,12.0,0.,12.0,0.,12.0
1980-11-14 00:27:13.260 ,5,1,0.,12.0,0.,12.0,0.,12.0,0.,12.0
1980-11-14 00:27:25.260 ,5,0,0.,12.0,0.,12.0,0.,12.0,0.,12.0
1980-11-14 00:27:37.260 ,5,0,0.,12.0,0.,12.0,0.,12.0,0.,12.0
1980-11-14 00:27:49.260 ,6,1,0.,12.0,0.,12.0,0.,12.0,0.,12.0
1980-11-14 00:28:01.260 ,6,1,0.,12.0,0.,12.0,0.,12.0,1.,12.0
1980-11-14 00:28:13.260 ,6,0,0.,12.0,0.,12.0,0.,12.0,0.,12.0
1980-11-14 00:28:25.260 ,6,0,0.,12.0,0.,12.0,0.,12.0,0.,12.0
1980-11-14 00:28:37.260 ,7,1,0.,12.0,0.,12.0,0.,12.0,0.,12.0
1980-11-14 00:28:49.260 ,7,1,0.,12.0,1.,12.0,0.,12.0,0.,12.0
1980-11-14 00:29:01.260 ,7,0,0.,12.0,3.,12.0,0.,12.0,0.,12.0
1980-11-14 00:29:13.260 ,7,0,0.,12.0,6.,12.0,0.,12.0,0.,12.0
1980-11-14 00:29:25.260 ,7,1,0.,12.0,4.,12.0,0.,12.0,0.,12.0
1980-11-14 00:29:37.260 ,7,1,0.,12.0,4.,12.0,0.,12.0,0.,12.0
1980-11-14 00:29:49.260 ,7,0,0.,12.0,4.,12.0,0.,12.0,0.,12.0
1980-11-14 00:30:01.260 ,7,0,0.,12.0,5.,12.0,0.,12.0,0.,12.0
1980-11-14 00:30:13.260 ,6,1,0.,12.0,9.,12.0,0.,12.0,0.,12.0
1980-11-14 00:30:25.260 ,6,1,0.,12.0,1.,12.0,0.,12.0,0.,12.0
1980-11-14 00:30:37.260 ,6,0,0.,12.0,0.,12.0,0.,12.0,0.,12.0
1980-11-14 00:30:49.260 ,6,0,0.,12.0,0.,12.0,0.,12.0,0.,12.0
1980-11-14 00:31:01.260 ,5,1,0.,12.0,0.,12.0,0.,12.0,0.,12.0
1980-11-14 00:31:13.260 ,5,1,0.,12.0,0.,12.0,0.,12.0,0.,12.0
1980-11-14 00:31:25.260 ,5,0,0.,12.0,0.,12.0,0.,12.0,0.,12.0
1980-11-14 00:31:37.260 ,5,0,0.,12.0,0.,12.0,0.,12.0,0.,12.0
1980-11-14 00:31:49.260 ,4,1,0.,12.0,0.,12.0,0.,12.0,0.,12.0
1980-11-14 00:32:01.260 ,4,1,0.,12.0,0.,12.0,0.,12.0,0.,12.0
1980-11-14 00:32:13.260 ,4,0,0.,12.0,0.,12.0,0.,12.0,0.,12.0
1980-11-14 00:32:25.260 ,4,0,0.,12.0,0.,12.0,0.,12.0,1.,12.0
1980-11-14 00:32:37.260 ,3,1,0.,12.0,0.,12.0,0.,12.0,0.,12.0
1980-11-14 00:32:49.260 ,3,1,0.,12.0,0.,12.0,0.,12.0,0.,12.0
1980-11-14 00:33:01.260 ,3,0,0.,12.0,0.,12.0,0.,12.0,0.,12.0
1980-11-14 00:33:13.260 ,3,0,0.,12.0,0.,12.0,0.,12.0,0.,12.0
1980-11-14 00:33:25.260 ,2,1,0.,12.0,0.,12.0,0.,12.0,0.,12.0
1980-11-14 00:33:37.260 ,2,1,0.,12.0,0.,12.0,0.,12.0,0.,12.0
1980-11-14 00:33:49.260 ,2,0,0.,12.0,0.,12.0,0.,12.0,0.,12.0
1980-11-14 00:34:01.260 ,2,0,0.,12.0,0.,12.0,0.,12.0,0.,12.0
1980-11-14 00:34:13.260 ,1,1,0.,12.0,0.,12.0,0.,12.0,0.,12.0
1980-11-14 00:34:25.260 ,1,1,0.,12.0,0.,12.0,0.,12.0,0.,12.0
1980-11-14 00:34:37.260 ,1,0,0.,12.0,0.,12.0,0.,12.0,1.,12.0
1980-11-14 00:34:49.260 ,1,0,0.,12.0,0.,12.0,0.,12.0,0.,12.0
1980-11-14 00:35:01.260 ,0,1,0.,12.0,0.,12.0,0.,12.0,0.,12.0
1980-11-14 00:35:13.260 ,0,1,0.,12.0,0.,12.0,0.,12.0,0.,12.0
1980-11-14 00:35:25.260 ,0,0,0.,12.0,0.,12.0,0.,12.0,0.,12.0
1980-11-14 00:35:37.260 ,0,0,0.,12.0,0.,12.0,0.,12.0,0.,12.0
1980-11-14 00:35:49.260 ,0,1,0.,12.0,0.,12.0,0.,12.0,0.,12.0
1980-11-14 00:36:01.260 ,0,1,0.,12.0,0.,12.0,0.,12.0,0.,12.0
1980-11-14 00:36:13.260 ,0,0,0.,12.0,0.,12.0,0.,12.0,0.,12.0
1980-11-14 00:36:25.260 ,0,0,0.,12.0,0.,12.0,0.,12.0,1.,12.0
1980-11-14 00:36:37.260 ,1,1,0.,12.0,0.,12.0,0.,12.0,0.,12.0
1980-11-14 00:36:49.260 ,1,1,0.,12.0,0.,12.0,0.,12.0,0.,12.0
1980-11-14 00:37:01.260 ,1,0,0.,12.0,0.,12.0,0.,12.0,0.,12.0
1980-11-14 00:37:13.260 ,1,0,0.,12.0,0.,12.0,0.,12.0,1.,12.0
1980-11-14 00:37:25.260 ,2,1,0.,12.0,0.,12.0,0.,12.0,0.,12.0
1980-11-14 00:37:37.260 ,2,1,0.,12.0,0.,12.0,0.,12.0,0.,12.0
1980-11-14 00:37:49.260 ,2,0,0.,12.0,0.,12.0,0.,12.0,0.,12.0
1980-11-14 00:38:01.260 ,2,0,0.,12.0,0.,12.0,0.,12.0,0.,12.0
1980-11-14 00:38:13.260 ,3,1,0.,12.0,0.,12.0,0.,12.0,0.,12.0
1980-11-14 00:38:25.260 ,3,1,0.,12.0,0.,12.0,0.,12.0,0.,12.0
1980-11-14 00:38:37.260 ,3,0,0.,12.0,0.,12.0,0.,12.0,0.,12.0
1980-11-14 00:38:49.260 ,3,0,0.,12.0,0.,12.0,0.,12.0,0.,12.0
1980-11-14 00:39:01.260 ,4,1,0.,12.0,0.,12.0,0.,12.0,0.,12.0
1980-11-14 00:39:13.260 ,4,1,0.,12.0,0.,12.0,0.,12.0,0.,12.0
1980-11-14 00:39:25.260 ,4,0,0.,12.0,0.,12.0,0.,12.0,0.,12.0
1980-11-14 00:39:37.260 ,4,0,0.,12.0,0.,12.0,0.,12.0,0.,12.0
1980-11-14 00:39:49.260 ,5,1,0.,12.0,0.,12.0,0.,12.0,0.,12.0
1980-11-14 00:40:01.260 ,5,1,0.,12.0,0.,12.0,0.,12.0,0.,12.0
1980-11-14 00:40:13.260 ,5,0,0.,12.0,0.,12.0,0.,12.0,0.,12.0
1980-11-14 00:40:25.260 ,5,0,0.,12.0,0.,12.0,0.,12.0,0.,12.0
1980-11-14 00:40:37.260 ,6,1,0.,12.0,0.,12.0,0.,12.0,0.,12.0
1980-11-14 00:40:49.260 ,6,1,0.,12.0,0.,12.0,0.,12.0,0.,12.0
1980-11-14 00:41:01.260 ,6,0,0.,12.0,0.,12.0,0.,12.0,0.,12.0
1980-11-14 00:41:13.260 ,6,0,0.,12.0,0.,12.0,0.,12.0,0.,12.0
1980-11-14 00:41:25.260 ,7,1,0.,12.0,0.,12.0,0.,12.0,0.,12.0
1980-11-14 00:41:37.260 ,7,1,0.,12.0,0.,12.0,0.,12.0,0.,12.0
1980-11-14 00:41:49.260 ,7,0,0.,12.0,4.,12.0,0.,12.0,0.,12.0
1980-11-14 00:42:01.260 ,7,0,0.,12.0,1.,12.0,0.,12.0,0.,12.0
1980-11-14 00:42:13.260 ,7,1,0.,12.0,5.,12.0,0.,12.0,0.,12.0
1980-11-14 00:42:25.260 ,7,1,0.,12.0,4.,12.0,0.,12.0,1.,12.0
1980-11-14 00:42:37.260 ,7,0,0.,12.0,2.,12.0,0.,12.0,0.,12.0
1980-11-14 00:42:49.260 ,7,0,0.,12.0,3.,12.0,0.,12.0,0.,12.0
1980-11-14 00:43:01.260 ,6,1,0.,12.0,2.,12.0,0.,12.0,0.,12.0
1980-11-14 00:43:13.260 ,6,1,0.,12.0,1.,12.0,0.,12.0,0.,12.0
1980-11-14 00:43:25.260 ,6,0,0.,12.0,0.,12.0,0.,12.0,0.,12.0
1980-11-14 00:43:37.260 ,6,0,0.,12.0,0.,12.0,0.,12.0,0.,12.0
1980-11-14 00:43:49.260 ,5,1,0.,12.0,0.,12.0,0.,12.0,0.,12.0
1980-11-14 00:44:01.260 ,5,1,0.,12.0,0.,12.0,0.,12.0,0.,12.0
1980-11-14 00:44:13.260 ,5,0,0.,12.0,0.,12.0,0.,12.0,0.,12.0
1980-11-14 00:44:25.260 ,5,0,0.,12.0,0.,12.0,0.,12.0,0.,12.0
1980-11-14 00:44:37.260 ,4,1,0.,12.0,0.,12.0,0.,12.0,0.,12.0
1980-11-14 00:44:49.260 ,4,1,0.,12.0,0.,12.0,0.,12.0,0.,12.0
1980-11-14 00:45:01.260 ,4,0,0.,12.0,0.,12.0,0.,12.0,0.,12.0
1980-11-14 00:45:13.260 ,4,0,0.,12.0,0.,12.0,0.,12.0,1.,12.0
1980-11-14 00:45:25.260 ,3,1,0.,12.0,0.,12.0,0.,12.0,0.,12.0
1980-11-14 00:45:37.260 ,3,1,0.,12.0,0.,12.0,0.,12.0,0.,12.0
1980-11-14 00:45:49.260 ,3,0,0.,12.0,0.,12.0,0.,12.0,0.,12.0
1980-11-14 00:46:01.260 ,3,0,0.,12.0,0.,12.0,0.,12.0,0.,12.0
1980-11-14 00:46:13.260 ,2,1,0.,12.0,0.,12.0,0.,12.0,0.,12.0
1980-11-14 00:46:25.260 ,2,1,0.,12.0,0.,12.0,0.,12.0,0.,12.0
1980-11-14 00:46:37.260 ,2,0,0.,12.0,0.,12.0,0.,12.0,0.,12.0
1980-11-14 00:46:49.260 ,2,0,0.,12.0,0.,12.0,0.,12.0,1.,12.0
1980-11-14 00:47:01.260 ,1,1,0.,12.0,0.,12.0,0.,12.0,0.,12.0
1980-11-14 00:47:13.260 ,1,1,0.,12.0,0.,12.0,0.,12.0,0.,12.0
1980-11-14 00:47:25.260 ,1,0,0.,12.0,0.,12.0,0.,12.0,0.,12.0
1980-11-14 00:47:37.260 ,1,0,0.,12.0,0.,12.0,0.,12.0,0.,12.0
1980-11-14 00:47:49.260 ,0,1,0.,12.0,0.,12.0,0.,12.0,0.,12.0
1980-11-14 00:48:01.260 ,0,1,0.,12.0,0.,12.0,0.,12.0,0.,12.0
1980-11-14 00:48:13.260 ,0,0,0.,12.0,0.,12.0,0.,12.0,0.,12.0
1980-11-14 00:48:25.260 ,0,0,0.,12.0,0.,12.0,0.,12.0,1.,12.0
1980-11-14 00:48:37.260 ,0,1,0.,12.0,0.,12.0,0.,12.0,0.,12.0
1980-11-14 00:48:49.260 ,0,1,0.,12.0,0.,12.0,0.,12.0,0.,12.0
1980-11-14 00:49:01.260 ,0,0,0.,12.0,0.,12.0,0.,12.0,0.,12.0
1980-11-14 00:49:13.260 ,0,0,0.,12.0,0.,12.0,0.,12.0,0.,12.0
1980-11-14 00:49:25.260 ,1,1,0.,12.0,0.,12.0,0.,12.0,1.,12.0
1980-11-14 00:49:37.260 ,1,1,0.,12.0,0.,12.0,0.,12.0,0.,12.0
1980-11-14 00:49:49.260 ,1,0,0.,12.0,0.,12.0,0.,12.0,0.,12.0
1980-11-14 00:50:01.260 ,1,0,0.,12.0,0.,12.0,0.,12.0,0.,12.0
1980-11-14 00:50:13.260 ,2,1,0.,12.0,0.,12.0,0.,12.0,0.,12.0
1980-11-14 00:50:25.260 ,2,1,0.,12.0,0.,12.0,0.,12.0,0.,12.0
1980-11-14 00:50:37.260 ,2,0,0.,12.0,0.,12.0,0.,12.0,0.,12.0
1980-11-14 00:50:49.260 ,2,0,0.,12.0,0.,12.0,0.,12.0,0.,12.0
1980-11-14 00:51:01.260 ,3,1,0.,12.0,0.,12.0,0.,12.0,0.,12.0
1980-11-14 00:51:13.260 ,3,1,0.,12.0,0.,12.0,0.,12.0,0.,12.0
1980-11-14 00:51:25.260 ,3,0,0.,12.0,0.,12.0,0.,12.0,0.,12.0
1980-11-14 00:51:37.260 ,3,0,0.,12.0,0.,12.0,0.,12.0,0.,12.0
1980-11-14 00:51:49.260 ,4,1,0.,12.0,0.,12.0,0.,12.0,0.,12.0
1980-11-14 00:52:01.260 ,4,1,0.,12.0,0.,12.0,0.,12.0,0.,12.0
1980-11-14 00:52:13.260 ,4,0,0.,12.0,0.,12.0,0.,12.0,0.,12.0
1980-11-14 00:52:25.260 ,4,0,0.,12.0,0.,12.0,0.,12.0,0.,12.0
1980-11-14 00:52:37.260 ,5,1,0.,12.0,0.,12.0,0.,12.0,0.,12.0
1980-11-14 00:52:49.260 ,5,1,0.,12.0,0.,12.0,0.,12.0,0.,12.0
1980-11-14 00:53:01.260 ,5,0,0.,12.0,0.,12.0,0.,12.0,0.,12.0
1980-11-14 00:53:13.260 ,5,0,0.,12.0,0.,12.0,0.,12.0,0.,12.0
1980-11-14 00:53:25.260 ,6,1,0.,12.0,0.,12.0,0.,12.0,0.,12.0
1980-11-14 00:53:37.260 ,6,1,0.,12.0,0.,12.0,0.,12.0,0.,12.0
1980-11-14 00:53:49.260 ,6,0,0.,12.0,0.,12.0,0.,12.0,0.,12.0
1980-11-14 00:54:01.260 ,6,0,0.,12.0,0.,12.0,0.,12.0,0.,12.0
1980-11-14 00:54:13.260 ,7,1,0.,12.0,0.,12.0,0.,12.0,0.,12.0
1980-11-14 00:54:25.260 ,7,1,0.,12.0,1.,12.0,0.,12.0,0.,12.0
1980-11-14 00:54:37.260 ,7,0,0.,12.0,4.,12.0,0.,12.0,0.,12.0
1980-11-14 00:54:49.260 ,7,0,0.,12.0,0.,12.0,0.,12.0,0.,12.0
1980-11-14 00:55:01.260 ,7,1,0.,12.0,5.,12.0,0.,12.0,0.,12.0
1980-11-14 00:55:13.260 ,7,1,0.,12.0,5.,12.0,0.,12.0,0.,12.0
1980-11-14 00:55:25.260 ,7,0,0.,12.0,5.,12.0,0.,12.0,0.,12.0
1980-11-14 00:55:37.260 ,7,0,0.,12.0,1.,12.0,0.,12.0,0.,12.0
1980-11-14 00:55:49.260 ,6,1,0.,12.0,2.,12.0,0.,12.0,0.,12.0
1980-11-14 00:56:01.260 ,6,1,0.,12.0,2.,12.0,0.,12.0,0.,12.0
1980-11-14 00:56:13.260 ,6,0,0.,12.0,0.,12.0,0.,12.0,1.,12.0
1980-11-14 00:56:25.260 ,6,0,0.,12.0,0.,12.0,0.,12.0,0.,12.0
1980-11-14 00:56:37.260 ,5,1,0.,12.0,0.,12.0,0.,12.0,0.,12.0
1980-11-14 00:56:49.260 ,5,1,0.,12.0,0.,12.0,0.,12.0,0.,12.0
1980-11-14 00:57:01.260 ,5,0,0.,12.0,0.,12.0,0.,12.0,0.,12.0
1980-11-14 00:57:13.260 ,5,0,0.,12.0,0.,12.0,0.,12.0,0.,12.0
1980-11-14 00:57:25.260 ,4,1,0.,12.0,0.,12.0,0.,12.0,0.,12.0
1980-11-14 00:57:37.260 ,4,1,0.,12.0,0.,12.0,0.,12.0,0.,12.0
1980-11-14 00:57:49.260 ,4,0,0.,12.0,0.,12.0,0.,12.0,0.,12.0
1980-11-14 00:58:01.260 ,4,0,0.,12.0,0.,12.0,0.,12.0,0.,12.0
1980-11-14 00:58:13.260 ,3,1,0.,12.0,0.,12.0,0.,12.0,0.,12.0
1980-11-14 00:58:25.260 ,3,1,0.,12.0,0.,12.0,0.,12.0,0.,12.0
1980-11-14 00:58:37.260 ,3,0,0.,12.0,0.,12.0,0.,12.0,0.,12.0
1980-11-14 00:58:49.260 ,3,0,0.,12.0,0.,12.0,0.,12.0,0.,12.0
1980-11-14 00:59:01.260 ,2,1,0.,12.0,0.,12.0,0.,12.0,0.,12.0
1980-11-14 00:59:13.260 ,2,1,0.,12.0,0.,12.0,0.,12.0,0.,12.0
1980-11-14 00:59:25.260 ,2,0,0.,12.0,0.,12.0,0.,12.0,0.,12.0
1980-11-14 00:59:37.260 ,2,0,0.,12.0,0.,12.0,0.,12.0,0.,12.0
1980-11-14 00:59:49.260 ,1,1,0.,12.0,0.,12.0,0.,12.0,0.,12.0
1980-11-14 01:00:01.260 ,1,1,0.,12.0,0.,12.0,0.,12.0,0.,12.0
1980-11-14 01:00:13.260 ,0,0,0.,12.0,0.,12.0,0.,12.0,0.,12.0
1980-11-14 01:00:25.260 ,0,0,0.,12.0,0.,12.0,0.,12.0,0.,12.0
1980-11-14 01:00:55.260 ,0,0,,0,,0,,0,,0
1980-11-14 01:01:07.260 ,0,0,,0,,0,,0,,0
1980-11-14 01:01:01.260 ,0,0,0.,12.0,0.,12.0,0.,12.0,0.,12.0
1980-11-14 01:01:13.260 ,0,0,0.,12.0,0.,12.0,0.,12.0,0.,12.0
1980-11-14 01:01:25.260 ,0,1,0.,12.0,0.,12.0,0.,12.0,0.,12.0
1980-11-14 01:01:37.260 ,0,1,0.,12.0,0.,12.0,0.,12.0,0.,12.0
1980-11-14 01:01:49.260 ,0,0,0.,12.0,0.,12.0,0.,12.0,0.,12.0
1980-11-14 01:02:01.260 ,0,0,0.,12.0,0.,12.0,0.,12.0,0.,12.0
1980-11-14 01:02:13.260 ,1,1,0.,12.0,0.,12.0,0.,12.0,1.,12.0
1980-11-14 01:02:25.260 ,1,1,0.,12.0,0.,12.0,0.,12.0,0.,12.0
1980-11-14 01:02:37.260 ,1,0,0.,12.0,0.,12.0,0.,12.0,0.,12.0
1980-11-14 01:02:49.260 ,1,0,0.,12.0,0.,12.0,0.,12.0,0.,12.0
1980-11-14 01:03:01.260 ,2,1,0.,12.0,0.,12.0,0.,12.0,0.,12.0
1980-11-14 01:03:13.260 ,2,1,0.,12.0,0.,12.0,0.,12.0,0.,12.0
1980-11-14 01:03:25.260 ,2,0,0.,12.0,0.,12.0,0.,12.0,0.,12.0
1980-11-14 01:03:37.260 ,2,0,0.,12.0,0.,12.0,0.,12.0,0.,12.0
1980-11-14 01:03:49.260 ,3,1,0.,12.0,0.,12.0,0.,12.0,0.,12.0
1980-11-14 01:04:01.260 ,3,1,0.,12.0,0.,12.0,0.,12.0,0.,12.0
1980-11-14 01:04:13.260 ,3,0,0.,12.0,0.,12.0,0.,12.0,0.,12.0
1980-11-14 01:04:25.260 ,3,0,0.,12.0,0.,12.0,0.,12.0,0.,12.0
1980-11-14 01:04:37.260 ,4,1,0.,12.0,0.,12.0,0.,12.0,1.,12.0
1980-11-14 01:04:49.260 ,4,1,0.,12.0,0.,12.0,0.,12.0,0.,12.0
1980-11-14 01:05:01.260 ,4,0,0.,12.0,0.,12.0,0.,12.0,0.,12.0
1980-11-14 01:05:13.260 ,4,0,0.,12.0,0.,12.0,0.,12.0,0.,12.0
1980-11-14 01:05:25.260 ,5,1,0.,12.0,0.,12.0,0.,12.0,0.,12.0
1980-11-14 01:05:37.260 ,5,1,0.,12.0,0.,12.0,0.,12.0,0.,12.0
1980-11-14 01:05:49.260 ,5,0,0.,12.0,0.,12.0,0.,12.0,0.,12.0
1980-11-14 01:06:01.260 ,5,0,0.,12.0,0.,12.0,0.,12.0,0.,12.0
1980-11-14 01:06:13.260 ,6,1,0.,12.0,0.,12.0,0.,12.0,0.,12.0
1980-11-14 01:06:25.260 ,6,1,0.,12.0,0.,12.0,0.,12.0,1.,12.0
1980-11-14 01:06:37.260 ,6,0,0.,12.0,0.,12.0,0.,12.0,1.,12.0
1980-11-14 01:06:49.260 ,6,0,0.,12.0,0.,12.0,0.,12.0,0.,12.0
1980-11-14 01:07:01.260 ,7,1,0.,12.0,0.,12.0,0.,12.0,0.,12.0
1980-11-14 01:07:13.260 ,7,1,0.,12.0,4.,12.0,0.,12.0,0.,12.0
1980-11-14 01:07:25.260 ,7,0,0.,12.0,3.,12.0,0.,12.0,0.,12.0
1980-11-14 01:07:37.260 ,7,0,0.,12.0,5.,12.0,0.,12.0,0.,12.0
1980-11-14 01:07:49.260 ,7,1,0.,12.0,7.,12.0,0.,12.0,0.,12.0
1980-11-14 01:08:01.260 ,7,1,0.,12.0,2.,12.0,0.,12.0,0.,12.0
1980-11-14 01:08:13.260 ,7,0,0.,12.0,1.,12.0,0.,12.0,0.,12.0
1980-11-14 01:08:25.260 ,7,0,0.,12.0,5.,12.0,0.,12.0,0.,12.0
1980-11-14 01:08:37.260 ,6,1,0.,12.0,3.,12.0,0.,12.0,0.,12.0
1980-11-14 01:08:49.260 ,6,1,0.,12.0,1.,12.0,0.,12.0,0.,12.0
1980-11-14 01:09:01.260 ,6,0,0.,12.0,0.,12.0,0.,12.0,0.,12.0
1980-11-14 01:09:13.260 ,6,0,0.,12.0,0.,12.0,0.,12.0,1.,12.0
1980-11-14 01:09:25.260 ,5,1,0.,12.0,0.,12.0,0.,12.0,0.,12.0
1980-11-14 01:09:37.260 ,5,1,0.,12.0,0.,12.0,0.,12.0,0.,12.0
1980-11-14 01:09:49.260 ,5,0,0.,12.0,0.,12.0,0.,12.0,0.,12.0
1980-11-14 01:10:01.260 ,5,0,0.,12.0,0.,12.0,0.,12.0,0.,12.0
1980-11-14 01:10:13.260 ,4,1,0.,12.0,0.,12.0,0.,12.0,1.,12.0
1980-11-14 01:10:25.260 ,4,1,0.,12.0,0.,12.0,0.,12.0,0.,12.0
1980-11-14 01:10:37.260 ,4,0,0.,12.0,0.,12.0,0.,12.0,0.,12.0
1980-11-14 01:10:49.260 ,4,0,0.,12.0,0.,12.0,0.,12.0,0.,12.0
1980-11-14 01:11:01.260 ,3,1,0.,12.0,0.,12.0,0.,12.0,0.,12.0
1980-11-14 01:11:13.260 ,3,1,0.,12.0,0.,12.0,0.,12.0,0.,12.0
1980-11-14 01:11:25.260 ,3,0,0.,12.0,0.,12.0,0.,12.0,0.,12.0
1980-11-14 01:11:37.260 ,3,0,0.,12.0,0.,12.0,0.,12.0,0.,12.0
1980-11-14 01:11:49.260 ,2,1,0.,12.0,0.,12.0,0.,12.0,0.,12.0
1980-11-14 01:12:01.260 ,2,1,0.,12.0,0.,12.0,0.,12.0,0.,12.0
1980-11-14 01:12:13.260 ,2,0,0.,12.0,0.,12.0,0.,12.0,0.,12.0
1980-11-14 01:12:25.260 ,2,0,0.,12.0,0.,12.0,0.,12.0,0.,12.0
1980-11-14 01:12:37.260 ,1,1,0.,12.0,0.,12.0,0.,12.0,0.,12.0
1980-11-14 01:12:49.260 ,1,1,0.,12.0,0.,12.0,0.,12.0,0.,12.0
1980-11-14 01:13:01.260 ,1,0,0.,12.0,0.,12.0,0.,12.0,2.,12.0
1980-11-14 01:13:13.260 ,1,0,0.,12.0,0.,12.0,0.,12.0,0.,12.0
1980-11-14 01:13:25.260 ,0,1,0.,12.0,0.,12.0,0.,12.0,0.,12.0
1980-11-14 01:13:37.260 ,0,1,0.,12.0,0.,12.0,0.,12.0,0.,12.0
1980-11-14 01:13:49.260 ,0,0,0.,12.0,0.,12.0,0.,12.0,0.,12.0
1980-11-14 01:14:01.260 ,0,0,0.,12.0,0.,12.0,0.,12.0,0.,12.0
1980-11-14 01:14:13.260 ,0,1,0.,12.0,0.,12.0,0.,12.0,0.,12.0
1980-11-14 01:14:25.260 ,0,1,0.,12.0,0.,12.0,0.,12.0,0.,12.0
1980-11-14 01:14:37.260 ,0,0,0.,12.0,0.,12.0,0.,12.0,0.,12.0
1980-11-14 01:14:49.260 ,0,0,0.,12.0,0.,12.0,0.,12.0,0.,12.0
1980-11-14 01:15:01.260 ,1,1,0.,12.0,0.,12.0,0.,12.0,0.,12.0
1980-11-14 01:15:13.260 ,1,1,0.,12.0,0.,12.0,0.,12.0,0.,12.0
1980-11-14 01:15:25.260 ,1,0,0.,12.0,0.,12.0,0.,12.0,0.,12.0
1980-11-14 01:15:37.260 ,1,0,0.,12.0,0.,12.0,0.,12.0,0.,12.0
1980-11-14 01:15:49.260 ,2,1,0.,12.0,0.,12.0,0.,12.0,0.,12.0
1980-11-14 01:16:01.260 ,2,1,0.,12.0,0.,12.0,0.,12.0,0.,12.0
1980-11-14 01:16:13.260 ,2,0,0.,12.0,0.,12.0,0.,12.0,0.,12.0
1980-11-14 01:16:25.260 ,2,0,0.,12.0,0.,12.0,0.,12.0,0.,12.0
1980-11-14 01:16:37.260 ,3,1,0.,12.0,0.,12.0,0.,12.0,0.,12.0
1980-11-14 01:16:49.260 ,3,1,0.,12.0,0.,12.0,0.,12.0,0.,12.0
1980-11-14 01:17:01.260 ,3,0,0.,12.0,0.,12.0,0.,12.0,0.,12.0
1980-11-14 01:17:13.260 ,3,0,0.,12.0,0.,12.0,0.,12.0,1.,12.0